EDT,Max TemperatureF,Mean TemperatureF,Min TemperatureF,Max Dew PointF,MeanDew PointF,Min DewpointF,Max Humidity, Mean Humidity, Min Humidity, Max Sea Level PressureIn, Mean Sea Level PressureIn, Min Sea Level PressureIn, Max VisibilityMiles, Mean VisibilityMiles, Min VisibilityMiles, Max Wind SpeedMPH, Mean Wind SpeedMPH, Max Gust SpeedMPH,PrecipitationIn, CloudCover, Events, WindDirDegrees
2013-8-1,71,66,59,63,59,55,94,80,60,29.89,29.86,29.84,10,10,4,17,7,24,0.00,4,,257
2013-8-2,70,62,55,61,57,53,94,82,64,29.91,29.83,29.80,10,10,10,14,5,21,0.01,4,Rain,258
2013-8-3,68,62,55,54,52,50,86,72,56,30.07,29.99,29.90,10,10,10,14,8,21,0.00,4,,303
2013-8-4,68,62,55,55,52,48,94,71,52,30.20,30.14,30.07,10,10,10,15,8,21,0.00,1,,301
2013-8-5,70,62,55,60,55,48,94,77,47,30.10,30.02,29.90,10,10,10,9,5,,0.00,3,Rain,189
2013-8-6,73,68,63,64,60,54,93,75,64,29.90,29.85,29.79,10,10,4,10,7,16,0.00,6,,182
2013-8-7,71,65,59,66,62,54,94,84,67,29.97,29.80,29.68,10,9,3,18,7,29,0.30,6,Rain,262
2013-8-8,69,60,51,58,53,44,92,73,44,30.04,30.01,29.97,10,10,10,14,7,18,0.01,0,,272
2013-8-9,69,62,53,62,56,46,93,78,46,30.03,29.94,29.88,10,10,5,20,7,30,0.08,5,Rain,248
2013-8-10,68,58,49,57,52,46,95,74,55,30.13,30.10,30.03,10,10,7,14,7,21,0.00,0,,270
2013-8-11,70,64,57,62,58,55,98,83,59,30.10,30.06,30.02,10,10,10,12,5,16,0.00,1,,234
2013-8-12,70,62,53,64,60,51,96,90,78,30.02,29.94,29.87,10,10,0,21,8,28,0.75,5,Rain,255
2013-8-13,60,54,49,51,47,43,92,78,54,30.10,30.02,29.93,10,10,10,16,10,26,0.00,5,,330
2013-8-14,65,57,49,54,50,48,97,77,57,30.15,30.11,30.09,10,10,10,15,9,23,0.00,2,,287
2013-8-15,69,64,59,60,57,52,96,79,55,30.10,30.07,30.04,10,10,10,15,8,21,0.00,0,,248
2013-8-16,74,63,52,60,53,48,99,69,40,30.20,30.15,30.10,10,10,7,9,5,,0.00,0,,268
2013-8-17,76,67,58,57,54,49,89,63,38,30.25,30.21,30.17,10,10,10,14,7,18,0.00,0,,215
2013-8-18,74,66,59,62,56,50,87,67,42,30.21,30.15,30.08,10,10,10,15,8,18,0.00,0,,224
2013-8-19,74,68,62,63,59,55,84,73,60,30.08,30.02,29.97,10,10,10,16,9,24,0.00,0,,224
2013-8-20,77,72,68,65,63,60,87,73,60,30.04,30.01,29.97,10,10,10,15,10,25,0.00,0,,235
2013-8-21,79,74,69,67,64,62,85,73,65,30.01,29.94,29.85,10,10,10,17,10,29,0.00,2,Rain,228
2013-8-22,78,68,59,65,58,46,97,71,33,30.12,30.02,29.92,10,10,5,14,8,22,0.00,1,,317
2013-8-23,72,63,54,58,54,49,97,74,47,30.24,30.19,30.12,10,10,10,9,6,,0.00,0,,73
2013-8-24,76,65,54,61,56,52,94,70,43,30.29,30.25,30.20,10,10,10,9,6,,0.00,0,,177
2013-8-25,78,70,62,67,63,56,94,71,59,30.20,30.06,29.96,10,10,7,20,10,32,0.03,2,Rain,219
2013-8-26,77,72,68,70,68,66,97,85,69,30.00,29.96,29.92,10,9,3,20,12,30,0.37,3,Rain,247
2013-8-27,75,70,64,69,67,64,100,92,76,29.95,29.90,29.86,10,8,0,9,4,,0.00,2,Fog-Rain,252
2013-8-28,82,72,63,69,66,64,99,84,58,30.05,29.97,29.87,10,7,0,8,4,,0.00,1,Fog,4
2013-8-29,80,72,63,70,66,63,99,85,60,30.08,30.04,29.94,10,8,0,10,5,,0.00,1,Fog,250
2013-8-30,74,70,66,70,66,63,97,85,71,29.94,29.82,29.75,10,9,2,15,8,20,0.59,6,Rain,242
2013-8-31,72,67,62,63,61,59,96,84,69,29.90,29.87,29.83,10,10,10,10,6,,0.00,2,,87